Volver al catálogo

STARLINK-35263

ActivoComunicacionesSSO
NORAD 65597·PAYLOAD·🇺🇸 United States

Lanzado Sep 13, 2025 desde Cape Canaveral Space Force Station

Loading…

Próximos Pases (próximas 24 horas)

TLE

ActualizadoSource: CelesTrak SupGP

Época: Sep 14, 2026, 21:28 UTC

1 65597C 25207F   26257.89493056 -.00024557  00000+0 -14932-2 0  2576
2 65597  97.2848 320.5718 0001927  93.0623 260.0076 15.10555456    19

Sigue STARLINK-35263 en tiempo real con AllMySat

Download on the App Store